GW3588 Weather Reports


time (UTC)temp
C
wind
direction
speed
KPH
gust
KPH
rain 1hr
cm
rain 24hr
cm
rain mn
cm
humidity
%
barometer
mb
20260505035824 12 167 19.3 32.2 0.00 0.00 0.00 69
20260505035324 12 168 19.3 37.0 0.00 0.00 0.00 69 1008.2
20260505034824 12 167 19.3 35.4 0.00 0.00 0.00 70
20260505034324 12 163 20.9 32.2 0.00 0.00 0.00 69 1008.2
20260505033824 12 167 17.7 33.8 0.00 0.00 0.00 70 1008.2
20260505033324 12 162 19.3 33.8 0.00 0.00 0.00 71 1008.0
20260505032824 11 161 17.7 30.6 0.00 0.00 0.00 72 1008.2
20260505032324 11 162 17.7 27.4 0.00 0.00 0.00 71 1008.2
20260505031824 12 160 12.9 27.4 0.00 0.00 0.00 69 1008.1
20260505031324 12 164 16.1 27.4 0.00 0.00 0.00 67 1008.1
20260505030824 12 168 20.9 33.8 0.00 0.00 0.00 66 1008.1
20260505030324 12 169 19.3 30.6 0.00 0.00 0.00 66 1008.1
20260505025824 12 167 20.9 33.8 0.00 0.00 0.00 67 1008.0
20260505025324 12 169 17.7 32.2 0.00 0.00 0.00 68 1008.1
20260505024824 12 167 16.1 27.4 0.00 0.00 0.00 70 1008.1
20260505024324 12 161 16.1 25.7 0.00 0.00 0.00 70
20260505023824 12 161 14.5 29.0 0.00 0.00 0.00 70 1008.2
20260505023324 12 161 16.1 29.0 0.00 0.00 0.00 70 1008.2
20260505022824 12 159 19.3 32.2 0.00 0.00 0.00 69 1008.1
20260505022324 12 152 20.9 32.2 0.00 0.00 0.00 71
20260505021824 12 145 17.7 25.7 0.00 0.00 0.00 70 1008.1
20260505021324 12 152 19.3 29.0 0.00 0.00 0.00 69
20260505020824 12 155 19.3 30.6 0.00 0.00 0.00 67 1008.0
20260505020324 13 146 17.7 37.0 0.00 0.00 0.00 63 1008.0
20260505015843 14 173 19.3 37.0 0.00 0.00 0.00 60 1007.9
20260505015724 14 172 20.9 40.2 0.00 0.00 0.00 59 1007.9
20260505014834 15 178 22.5 38.6 0.00 0.00 0.00 58
20260505012424 13 156 22.5 38.6 0.00 0.00 0.00 65
20260505011924 13 157 25.7 38.6 0.00 0.00 0.00 65 1007.3
20260505011423 13 155 25.7 41.8 0.00 0.00 0.00 66
20260505010924 13 156 27.4 40.2 0.00 0.00 0.00 67 1007.1
20260505010424 13 152 24.1 43.5 0.00 0.00 0.00 66 1006.9
20260505005924 13 155 25.7 43.5 0.00 0.00 0.00 66 1006.9
20260505005424 13 154 27.4 41.8 0.00 0.00 0.00 65 1006.8
20260505004924 13 152 29.0 51.5 0.00 0.00 0.00 64
20260505004424 13 153 22.5 56.3 0.00 0.00 0.00 64 1006.6
20260505003923 13 151 30.6 49.9 0.00 0.00 0.00 63 1005.9
20260505003423 13 149 33.8 59.5 0.00 0.00 0.00 62
20260505002923 14 147 32.2 53.1 0.00 0.00 0.00 61 1006.1
20260505002424 14 149 33.8 54.7 0.00 0.00 0.00 61
20260505001923 14 151 35.4 56.3 0.00 0.00 0.00 62
20260505001423 13 152 29.0 46.7 0.00 0.00 0.00 62 1005.7
20260505000923 14 148 33.8 57.9 0.00 0.00 0.00 61
20260505000423 14 147 32.2 48.3 0.00 0.00 0.00 61
20260504235923 14 147 30.6 45.1 0.00 0.00 0.00 61 1005.4
20260504235423 14 151 29.0 41.8 0.00 0.00 0.00 61
20260504234923 13 153 22.5 35.4 0.00 0.00 0.00 61 1005.5
20260504234804 14 156 25.7 35.4 0.00 0.00 0.00 59 1005.5
20260504233956 15 138 12.9 20.9 0.00 0.00 0.00 53 1005.5
20260504233423 16 177 14.5 24.1 0.00 0.00 0.00 48 1005.2
20260504232926 16 176 14.5 22.5 0.00 0.00 0.00 51 1005.1
20260504232430 16 171 14.5 20.9 0.00 0.00 0.00 52
20260504231922 16 181 14.5 20.9 0.00 0.00 0.00 48
20260504230044 17 180 12.9 22.5 0.00 0.00 0.00 45 1004.8
20260504225223 18 188 16.1 22.5 0.00 0.00 0.00 40
20260504223123 18 203 14.5 24.1 0.00 0.00 0.00 39
20260504223024 18 219 17.7 29.0 0.00 0.00 0.00 39 1004.5
20260504222128 18 214 12.9 25.7 0.00 0.00 0.00 42 1004.5
20260504221623 18 193 14.5 25.7 0.00 0.00 0.00 44 1004.6
20260504221023 18 189 16.1 27.4 0.00 0.00 0.00 44 1004.5
20260504220523 17 178 16.1 27.4 0.00 0.00 0.00 44
20260504220025 17 190 16.1 22.5 0.00 0.00 0.00 44
20260504215523 17 185 12.9 25.7 0.00 0.00 0.00 45 1004.3
20260504215023 18 186 16.1 27.4 0.00 0.00 0.00 44
20260504214536 18 177 12.9 25.7 0.00 0.00 0.00 42 1004.4
20260504214436 19 187 22.5 32.2 0.00 0.00 0.00 37 1004.4
20260504213547 18 184 20.9 32.2 0.00 0.00 0.00 41
20260504213237 18 194 20.9 37.0 0.00 0.00 0.00 40 1004.4
20260504212524 18 184 19.3 33.8 0.00 0.00 0.00 43
20260504212029 18 189 20.9 30.6 0.00 0.00 0.00 42 1004.4
20260504211533 18 185 14.5 29.0 0.00 0.00 0.00 44 1004.3
20260504211513 18 180 16.1 27.4 0.00 0.00 0.00 42 1004.4
20260504211310 18 180 14.5 22.5 0.00 0.00 0.00 42 1004.4
20260504205823 18 181 17.7 32.2 0.00 0.00 0.00 41 1004.4
20260504205323 18 194 17.7 29.0 0.00 0.00 0.00 40 1004.3
20260504204823 20 196 19.3 32.2 0.00 0.00 0.00 37 1004.5
20260504204415 19 188 19.3 37.0 0.00 0.00 0.00 39 1004.4
20260504204007 19 181 11.3 24.1 0.00 0.00 0.00 40 1004.6
20260504203323 19 189 16.1 29.0 0.00 0.00 0.00 40 1004.5
20260504202823 19 189 19.3 27.4 0.00 0.00 0.00 39 1004.5
20260504202323 20 197 14.5 25.7 0.00 0.00 0.00 38 1004.6
20260504201823 19 183 14.5 24.1 0.00 0.00 0.00 39
20260504201323 19 175 16.1 29.0 0.00 0.00 0.00 39 1004.6
20260504200823 19 192 20.9 30.6 0.00 0.00 0.00 38
20260504200323 18 189 16.1 40.2 0.00 0.00 0.00 39 1004.5
20260504195823 19 184 19.3 37.0 0.00 0.00 0.00 39 1004.5
20260504195323 19 186 14.5 29.0 0.00 0.00 0.00 38 1004.6
20260504194823 20 185 17.7 32.2 0.00 0.00 0.00 37
20260504194323 20 189 19.3 29.0 0.00 0.00 0.00 37 1004.6
20260504193823 20 183 12.9 27.4 0.00 0.00 0.00 39 1004.6
20260504193323 20 181 19.3 30.6 0.00 0.00 0.00 37 1004.6
20260504192823 20 175 19.3 30.6 0.00 0.00 0.00 38 1004.7
20260504192322 20 174 16.1 32.2 0.00 0.00 0.00 36 1004.7
20260504191822 20 194 19.3 32.2 0.00 0.00 0.00 36 1004.7
20260504191322 20 183 12.9 27.4 0.00 0.00 0.00 39 1004.8
20260504190822 19 194 14.5 30.6 0.00 0.00 0.00 40 1004.8
20260504190322 20 192 17.7 37.0 0.00 0.00 0.00 39 1005.0
20260504185822 19 193 17.7 32.2 0.00 0.00 0.00 38 1004.8
20260504185322 19 181 16.1 38.6 0.00 0.00 0.00 38 1004.9
20260504184824 20 188 19.3 38.6 0.00 0.00 0.00 37 1004.9
20260504184322 19 189 19.3 38.6 0.00 0.00 0.00 38 1004.8
20260504183822 19 191 24.1 40.2 0.00 0.00 0.00 39
20260504183322 19 187 24.1 45.1 0.00 0.00 0.00 37 1004.9
20260504182822 18 184 20.9 40.2 0.00 0.00 0.00 40 1005.0
20260504182322 18 199 25.7 41.8 0.00 0.00 0.00 38 1004.9
20260504181822 19 188 24.1 41.8 0.00 0.00 0.00 38 1005.0
20260504181322 18 190 27.4 43.5 0.00 0.00 0.00 38 1005.0
20260504180822 19 191 25.7 46.7 0.00 0.00 0.00 37 1005.0
20260504180322 18 187 17.7 32.2 0.00 0.00 0.00 41 1005.1
20260504175822 18 184 19.3 35.4 0.00 0.00 0.00 42
20260504175322 18 185 22.5 38.6 0.00 0.00 0.00 42 1005.2
20260504174822 18 192 22.5 33.8 0.00 0.00 0.00 42 1005.3
20260504174322 18 185 20.9 37.0 0.00 0.00 0.00 42 1005.3
20260504173822 18 184 24.1 37.0 0.00 0.00 0.00 41 1005.4
20260504173322 18 188 22.5 40.2 0.00 0.00 0.00 43 1005.3
20260504172722 18 185 25.7 37.0 0.00 0.00 0.00 43
20260504172222 17 195 19.3 35.4 0.00 0.00 0.00 43 1005.4
20260504171722 17 208 19.3 33.8 0.00 0.00 0.00 48
20260504171222 18 188 27.4 48.3 0.00 0.00 0.00 42 1005.3
20260504170722 18 189 22.5 45.1 0.00 0.00 0.00 42 1005.5
20260504170222 17 186 22.5 38.6 0.00 0.00 0.00 44 1005.5
20260504160122 17 182 17.7 30.6 0.00 0.00 0.00 47 1005.8
20260504151122 17 187 17.7 29.0 0.00 0.00 0.00 47 1006.4
20260504150622 17 188 16.1 25.7 0.00 0.00 0.00 44 1006.6
20260504150122 17 193 16.1 29.0 0.00 0.00 0.00 45 1006.7
20260504141121 15 181 11.3 24.1 0.00 0.00 0.00 56 1007.3
20260504140622 14 182 11.3 22.5 0.00 0.00 0.00 57 1007.4
20260504140122 14 170 12.9 20.9 0.00 0.00 0.00 59 1007.4
20260504130621 12 169 14.5 20.9 0.00 0.00 0.00 63 1008.1
20260504130121 11 162 12.9 20.9 0.00 0.00 0.00 61 1008.2
20260504120121 9 174 8.0 14.5 0.00 0.00 0.00 68 1008.8
20260504110621 8 176 12.9 20.9 0.00 0.00 0.00 68
20260504110121 8 180 12.9 22.5 0.00 0.00 0.00 68
20260504100121 8 190 16.1 27.4 0.00 0.00 0.00 67 1008.5
20260504090121 7 185 12.9 20.9 0.00 0.00 0.00 68 1008.4
20260504081620 7 200 16.1 25.7 0.00 0.00 0.00 65 1008.4
20260504081120 7 203 17.7 25.7 0.00 0.00 0.00 66 1008.4
20260504080621 7 204 12.9 22.5 0.00 0.00 0.00 66 1008.3
20260504080121 7 208 14.5 27.4 0.00 0.00 0.00 65 1008.4
20260504070120 7 186 12.9 20.9 0.00 0.00 0.00 68 1008.1
20260504060120 7 192 16.1 22.5 0.00 0.00 0.00 66 1008.2
20260504050620 7 197 11.3 19.3 0.00 0.00 0.00 69 1008.2
20260504050120 7 196 12.9 20.9 0.00 0.00 0.00 69 1008.2
20260504045620 7 199 11.3 22.5 0.00 0.00 0.00 69 1008.2
20260504045120 7 199 12.9 20.9 0.00 0.00 0.00 69 1008.2
20260504044620 7 199 11.3 19.3 0.00 0.00 0.00 69 1008.2
20260504044120 7 194 11.3 17.7 0.00 0.00 0.00 70 1008.2
20260504043620 7 197 9.7 19.3 0.00 0.00 0.00 69 1008.3
20260504043120 7 193 9.7 17.7 0.00 0.00 0.00 70 1008.3
20260504042620 7 194 11.3 17.7 0.00 0.00 0.00 68 1008.2
20260504042120 7 192 12.9 22.5 0.00 0.00 0.00 68 1008.3
20260504041620 7 195 12.9 19.3 0.00 0.00 0.00 69 1008.3
20260504041120 7 188 11.3 17.7 0.00 0.00 0.00 69 1008.2
20260504040620 7 187 11.3 14.5 0.00 0.00 0.00 69 1008.2
20260504040120 7 185 11.3 16.1 0.00 0.00 0.00 68 1008.1